Weather History for LICZ - April, 2014

Change the Weather History Date:

Wednesday, April 2, 2014

  Actual Average Record
Temperature  
Mean Temperature 56 °F -  
Max Temperature 72 °F 70 °F 80 °F (2006)
Min Temperature 41 °F 47 °F 37 °F (1997)
Degree Days  
Heating Degree Days 8    
Growing Degree Days 6 (Base 50)    
Moisture  
Dew Point 47 °F    
Average Humidity 81    
Maximum Humidity 100    
Minimum Humidity 32    
Precipitation  
Precipitation 0.00 in 0.05 in - ()
Sea Level Pressure  
Sea Level Pressure 30.02 in    
Wind  
Wind Speed 4 mph ()    
Max Wind Speed 12 mph    
Max Gust Speed -    
Visibility 5.7 miles    
Events      
Averages and records for this station are not official NWS values.
T = Trace of Precipitation, MM = Missing Value Source: Averaged Metar Reports

Daily Weather History Graph

Daily Weather History Graph

Search for Another Location

Airport or City:

Trip Planner

Search our weather history database for the weather conditions in past years. The results will help you decide how hot, cold, wet, or windy it might be!

Date:

Astronomy

Apr. 02, 2014 Rise Set
Actual Time 6:44 AM CEST 7:23 PM CEST
Civil Twilight 6:18 AM CEST 7:50 PM CEST
Nautical Twilight 5:47 AM CEST 8:21 PM CEST
Astronomical Twilight 5:15 AM CEST 8:53 PM CEST
Moon 8:19 AM CEST 10:25 PM CEST
Length of Visible Light 13h 31m
Length of Day
12h 38m
Waxing Crescent, 8% of the Moon is Illuminated
Apr 2
Waxing Crescent
Apr 7
First Quarter
Apr 15
Full
Apr 22
Last Quarter
Apr 29
New

Hourly Weather History & Observations

Time (CEST) Temp. Windchill Dew Point Humidity Pressure Visibility Wind Dir Wind Speed Gust Speed Precip Events Conditions
12:55 AM 50.0 °F - 50.0 °F 100% 30.04 in - NW 4.6 mph - N/A   Clear
1:55 AM 50.0 °F - 50.0 °F 100% 30.04 in - WNW 5.8 mph - N/A   Clear
2:00 AM 51 °F - 51 °F 99% 30.06 in 6 mi WNW 5.8 mph - -  
2:55 AM 48.2 °F - 48.2 °F 100% 30.04 in - WNW 5.8 mph - N/A   Clear
3:55 AM 44.6 °F 43.1 °F 44.6 °F 100% 30.04 in - WNW 3.5 mph - N/A   Clear
4:55 AM 41.0 °F - 41.0 °F 100% 30.04 in - WNW 1.2 mph - N/A   Clear
5:00 AM 41 °F - 41 °F 100% 30.05 in 6 mi WNW 1.2 mph - -  
5:55 AM 41.0 °F 38.0 °F 41.0 °F 100% 30.04 in - WNW 4.6 mph - N/A   Clear
6:55 AM 41.0 °F 38.0 °F 41.0 °F 100% 30.04 in - West 4.6 mph - N/A   Clear
7:55 AM 42.8 °F - 42.8 °F 100% 30.06 in - WNW 2.3 mph - N/A   Clear
8:00 AM 43 °F - 43 °F 100% 30.08 in 6 mi WNW 2.3 mph - -  
8:55 AM 53.6 °F - 48.2 °F 82% 30.01 in - Calm Calm - N/A   Clear
9:55 AM 59.0 °F - 48.2 °F 67% 30.04 in - WSW 1.2 mph - N/A   Clear
10:55 AM 64.4 °F - 42.8 °F 45% 30.04 in - SSE 2.3 mph - N/A   Clear
11:00 AM 65 °F - 44 °F 34% 30.06 in 6 mi SSE 2.3 mph - -  
11:55 AM 66.2 °F - 35.6 °F 32% 30.04 in - SE 1.2 mph - N/A   Clear
12:55 PM 66.2 °F - 35.6 °F 32% 30.01 in - West 3.5 mph - N/A   Clear
2:55 PM 68.0 °F - 42.8 °F 40% 29.98 in - ESE 11.5 mph - N/A   Clear
3:55 PM 68.0 °F - 48.2 °F 49% 29.98 in 6.2 mi ESE 10.4 mph - N/A   Partly Cloudy
4:55 PM 66.2 °F - 46.4 °F 49% 29.95 in 6.2 mi East 3.5 mph - N/A   Partly Cloudy
5:00 PM 66 °F - 47 °F 40% 29.97 in 6 mi East 3.5 mph - -   Scattered Clouds
5:55 PM 62.6 °F - 55.4 °F 77% 29.98 in 6.2 mi East 11.5 mph - N/A   Partly Cloudy
6:55 PM 59.0 °F - 57.2 °F 94% 29.98 in 6.2 mi East 10.4 mph - N/A   Partly Cloudy
7:55 PM 57.2 °F - 57.2 °F 100% 29.98 in 6.2 mi East 3.5 mph - N/A   Partly Cloudy
8:00 PM 57 °F - 57 °F 99% 29.98 in 6 mi East 3.5 mph - -   Scattered Clouds
8:55 PM 55.4 °F - 55.4 °F 100% 30.01 in 6.2 mi East 3.5 mph - N/A   Partly Cloudy
9:55 PM 51.8 °F - 51.8 °F 100% 30.01 in 5.0 mi SSW 4.6 mph - N/A   Partly Cloudy
10:55 PM 51.8 °F - 51.8 °F 100% 30.01 in 4.3 mi NNW 2.3 mph - N/A   Partly Cloudy
11:00 PM 53 °F - 53 °F 98% 30.02 in 4 mi NNW 2.3 mph - -   Mist
11:55 PM 51.8 °F - 51.8 °F 100% 30.01 in 4.3 mi East 4.6 mph - N/A   Partly Cloudy